Lapse_Rate
4.6 5.2 5.6 4.6 6.5 6.5 6.5 6.5 6.5 6.5 6.5 7.3 7.6 7.0 6.7 7.2 6.5 6.6 6.9 6.9 7.0 7.7 7.1 7.0 6.2 6.4 6.2 6.3 5.7 6.2 6.4 6.8 7.2 6.9 6.6 6.3 6.2 6.2 6.1 6.3 6.3 6.9 6.8 7.0 7.2 7.0 6.6 6.4 6.2
5.2 4.9 4.9 6.3 6.5 6.5 6.5 6.5 6.5 6.5 7.1 7.8 7.7 7.4 6.9 6.5 8.0 6.4 7.2 6.2 6.9 7.4 7.4 7.3 5.7 6.4 6.1 6.1 6.0 6.0 6.8 7.0 7.2 6.9 6.5 6.2 6.4 6.4 6.1 6.4 6.8 7.3 7.1 7.3 6.6 6.4 6.5 6.2 6.2
5.5 5.1 7.1 6.5 6.5 6.5 6.5 6.5 6.4 6.9 7.4 7.2 7.1 7.8 7.5 7.1 7.5 7.5 6.2 5.7 6.9 7.4 6.8 6.6 6.1 6.1 6.0 6.0 5.9 6.4 6.7 6.8 7.1 6.8 6.5 6.4 6.5 6.4 6.4 6.6 6.9 6.9 7.5 6.7 6.4 6.4 6.3 6.2 6.2
5.2 5.7 7.0 6.5 6.5 6.5 6.5 6.5 6.8 6.8 7.4 7.7 7.5 6.6 8.1 8.5 8.5 6.6 6.3 6.6 6.6 6.6 7.1 6.7 6.1 6.1 6.2 6.2 6.3 6.4 6.7 7.2 7.2 6.8 6.7 6.6 6.3 6.4 6.6 6.9 6.5 6.7 6.6 6.9 6.7 6.8 6.6 6.4 6.1
5.3 6.4 6.5 6.5 6.5 6.5 6.5 7.0 7.1 6.5 6.9 7.2 7.4 6.8 7.3 7.8 7.1 6.8 6.8 6.8 6.5 6.6 7.0 7.2 6.1 6.3 6.2 6.2 6.4 6.5 7.5 7.2 7.1 7.3 6.8 6.5 6.4 6.5 6.5 6.6 6.9 6.8 6.8 6.9 7.0 6.8 6.4 6.4 6.4
6.8 7.1 6.5 6.5 6.5 6.5 6.6 7.2 7.3 7.0 7.3 7.5 7.1 7.1 7.2 8.2 7.7 6.9 7.1 6.6 6.3 6.5 7.1 6.9 6.2 6.2 6.2 6.3 6.4 6.6 7.0 7.4 6.5 6.5 6.7 6.4 6.4 5.9 6.7 7.4 7.3 6.8 7.1 7.1 6.9 6.9 6.6 6.5 6.4
6.7 6.5 6.5 6.6 6.5 6.5 6.5 7.6 6.9 6.9 7.0 7.0 7.8 6.5 7.4 8.1 6.9 6.6 6.6 6.5 6.4 6.1 6.4 6.4 7.2 6.5 6.2 6.4 6.4 6.6 6.7 6.1 5.6 6.6 6.6 6.7 7.1 6.4 6.9 7.3 7.6 7.1 6.7 6.8 6.9 6.6 6.5 6.5 6.2
7.2 6.5 6.5 6.5 6.5 6.5 6.8 7.1 7.6 7.2 6.8 8.2 8.2 6.6 6.9 8.2 6.8 6.9 7.1 6.9 6.3 5.9 5.9 7.1 7.2 6.8 7.0 6.4 5.3 5.0 4.6 5.6 6.7 6.2 6.4 6.9 6.6 6.6 6.8 6.6 6.9 7.1 6.8 6.8 6.5 6.2 5.9 6.1 6.1
5.6 6.5 6.5 6.5 6.5 6.5 7.2 6.6 7.7 8.0 7.6 7.9 8.1 7.9 7.6 6.5 6.6 7.1 7.1 7.1 6.7 6.4 5.9 7.6 7.2 7.4 5.8 4.9 3.1 4.7 5.2 5.0 7.5 6.1 6.1 6.5 6.0 7.6 7.0 7.1 6.9 6.9 6.7 6.4 6.2 6.1 6.1 6.2 6.1
6.7 6.4 6.5 6.6 6.6 6.5 7.0 7.0 7.2 7.0 7.1 7.3 7.5 6.5 6.3 5.9 6.4 7.4 7.8 7.4 6.9 6.5 5.8 6.5 7.2 7.8 6.5 5.2 4.5 4.6 5.1 6.3 6.2 5.7 5.5 5.9 5.8 6.4 7.5 8.2 6.7 6.5 6.2 6.2 6.0 6.0 5.9 6.3 8.2
6.8 6.5 6.5 6.7 7.1 7.3 7.0 7.0 7.6 7.0 6.4 7.3 7.3 7.5 7.3 6.7 7.2 7.7 7.3 6.9 8.1 6.7 6.4 6.5 6.0 6.9 6.7 4.6 4.2 4.3 5.1 5.3 5.6 5.8 5.7 5.3 5.0 6.7 7.8 7.9 7.5 6.9 5.9 7.4 6.4 6.8 7.3 7.3 7.7
6.6 6.8 6.9 7.1 7.3 7.2 6.8 7.4 6.9 7.2 7.2 8.0 8.0 6.8 7.0 7.5 8.0 8.1 8.1 6.9 6.8 6.7 6.6 6.4 6.2 5.5 7.1 6.8 6.2 6.4 6.6 6.0 4.6 5.1 5.9 4.3 6.3 7.1 6.9 6.6 6.6 7.1 7.1 6.6 6.6 7.6 7.1 7.0 7.1
6.5 6.7 7.1 7.4 7.4 7.3 7.5 6.9 6.9 7.1 7.8 8.0 7.9 6.8 6.9 7.6 7.1 7.1 7.3 7.0 6.6 6.8 6.7 6.6 6.2 5.4 5.5 6.8 7.2 6.9 6.6 6.2 5.2 5.2 6.1 4.7 4.5 5.5 6.9 6.8 7.0 7.0 7.0 6.6 6.9 6.9 7.3 7.2 7.8
7.0 7.0 7.1 7.2 7.2 7.4 6.8 6.8 7.1 7.4 7.9 7.8 7.9 7.9 8.0 7.4 7.4 7.1 7.0 7.2 6.8 6.8 7.1 6.8 6.1 5.8 5.3 5.7 5.8 5.7 5.7 5.7 4.6 4.6 4.6 5.0 5.6 6.3 7.2 6.7 7.5 7.4 7.2 6.8 6.5 6.9 7.0 7.1 7.5
7.2 6.5 6.5 6.7 6.9 6.6 7.3 6.5 6.5 7.6 7.9 7.6 7.9 8.0 8.1 8.1 7.9 7.1 7.5 7.3 7.2 7.1 7.2 6.8 6.7 6.2 6.2 5.7 5.7 5.5 3.8 4.5 4.8 4.8 4.3 4.1 5.2 4.4 6.1 7.0 7.5 7.5 6.9 6.0 6.6 6.8 6.9 7.6 8.1
6.5 6.5 6.5 6.6 6.7 7.0 6.8 6.6 6.6 7.7 7.6 7.4 7.6 7.8 7.9 8.0 7.0 7.4 7.1 7.2 7.3 6.9 6.3 6.8 7.5 6.9 6.6 6.8 6.2 6.7 5.9 4.0 4.0 4.4 5.7 6.4 6.1 5.8 6.0 7.2 7.7 6.7 6.8 6.8 7.2 7.2 7.4 7.7 8.4
6.5 6.5 6.5 6.5 6.7 6.5 6.5 6.5 6.7 7.6 7.5 7.3 7.6 7.7 7.9 7.8 7.4 7.2 7.2 6.7 7.2 6.5 6.0 6.3 6.6 6.6 6.5 6.1 6.1 6.6 6.6 5.7 5.3 6.3 6.6 6.4 6.3 6.6 6.3 7.4 7.7 6.8 7.3 7.3 7.6 6.9 7.2 7.7 8.2
6.5 6.6 6.5 6.5 6.5 6.5 6.5 6.5 6.5 7.4 7.4 7.4 7.6 7.7 7.8 8.0 7.9 7.6 6.7 6.7 6.3 6.5 6.0 6.1 6.5 5.9 5.5 6.3 6.1 6.1 6.4 5.6 5.0 6.1 6.6 6.5 6.6 6.3 6.2 6.8 6.7 6.8 6.8 6.8 6.8 6.4 6.7 7.0 6.5
6.4 6.5 6.5 6.5 6.5 6.5 6.5 6.5 6.5 7.1 7.3 7.2 7.4 7.6 7.7 7.9 8.5 7.2 5.9 6.4 5.9 5.8 6.0 5.6 5.5 5.2 6.2 6.4 6.0 5.6 5.3 6.6 5.6 5.3 5.8 5.9 6.7 6.8 6.1 7.0 6.9 6.5 5.7 5.8 6.0 5.6 3.9 5.9 6.7
6.5 6.5 6.5 6.5 6.5 6.5 6.5 6.5 6.5 6.8 6.9 7.4 7.3 7.5 7.5 7.8 8.1 6.4 5.7 6.2 5.3 5.1 5.8 5.6 5.4 5.0 5.2 6.1 6.7 6.3 6.0 5.4 5.6 6.1 5.8 6.2 6.4 6.2 6.0 6.2 6.8 5.4 3.4 5.8 5.8 4.4 5.9 6.9 5.6
6.5 6.5 6.5 6.5 6.4 6.5 6.5 6.5 6.5 6.6 7.2 7.3 7.6 7.8 7.9 7.8 7.7 6.9 5.6 5.7 5.3 4.6 4.9 5.2 5.0 4.9 5.3 5.7 6.3 6.2 6.3 6.0 6.5 6.1 6.9 6.9 6.3 6.3 6.1 6.2 6.2 5.5 5.7 5.6 6.2 6.3 6.3 7.3 7.0
6.5 6.5 6.5 6.5 6.5 6.5 6.5 6.5 6.5 6.5 6.5 6.7 7.2 7.5 7.8 7.9 6.7 6.6 6.7 5.7 5.7 5.1 5.2 5.3 4.6 4.8 5.1 5.1 6.5 6.3 7.2 6.8 6.8 7.2 7.1 7.0 6.4 6.2 6.4 6.4 6.0 5.6 5.8 5.6 6.4 7.2 6.8 6.6 8.3
6.5 6.5 6.5 6.4 6.5 6.5 6.5 6.5 6.5 6.5 6.5 6.5 6.9 7.5 7.7 7.9 8.0 7.7 7.0 6.5 6.0 5.3 4.9 5.2 4.8 4.2 4.9 5.1 5.6 6.4 6.6 7.0 6.6 6.3 5.9 5.6 6.1 5.7 6.1 5.7 5.8 5.9 6.7 6.2 6.3 6.9 6.6 7.4 7.9
6.5 6.5 6.5 6.5 6.5 6.5 6.5 6.5 6.5 6.5 6.5 6.5 6.9 7.4 7.6 7.8 7.9 6.8 7.3 6.1 5.4 5.2 5.6 5.3 4.2 4.2 4.5 4.7 5.0 5.1 5.8 6.5 6.9 6.7 6.4 6.8 6.4 6.9 5.9 5.9 5.7 6.2 6.7 6.5 6.8 6.6 6.4 6.8 6.8
6.6 6.5 6.5 6.5 6.5 6.5 6.5 6.5 6.5 6.5 6.5 6.6 6.7 7.2 7.6 7.8 7.9 7.4 6.2 6.0 5.6 4.6 4.9 5.7 4.6 4.3 4.4 4.7 5.1 5.1 5.2 5.5 5.6 5.9 6.8 6.8 6.1 7.1 7.1 6.1 5.7 6.4 6.0 5.9 5.7 5.8 6.3 6.5 7.1
6.5 6.5 6.5 6.5 6.5 6.4 6.5 6.5 6.5 6.5 7.1 7.3 7.3 7.4 7.2 6.4 8.0 7.7 5.9 5.9 4.9 4.8 4.2 4.7 4.8 4.1 4.6 4.5 4.4 4.9 5.3 6.4 6.4 6.3 6.7 7.3 7.6 7.6 6.4 6.4 6.2 6.0 5.9 6.0 5.8 6.4 6.5 6.3 6.7
6.5 6.5 6.5 6.5 6.5 6.5 6.5 6.5 6.6 6.5 6.5 6.9 7.1 7.3 7.4 7.6 6.2 5.9 5.9 4.9 4.5 4.5 3.6 3.7 4.1 4.5 4.7 5.3 4.6 4.5 4.9 5.3 6.2 6.0 6.2 7.2 6.7 7.3 6.5 6.2 6.0 6.0 5.9 5.9 5.8 6.5 6.2 5.9 5.2
6.5 6.6 6.5 6.5 6.5 6.4 6.5 6.5 6.5 6.5 6.5 6.4 6.6 7.1 7.4 6.8 5.5 4.8 4.7 4.9 4.7 4.8 4.8 4.3 4.7 5.0 5.5 5.8 5.8 5.8 5.6 5.4 6.0 6.2 6.2 6.4 6.6 6.2 6.1 6.0 5.7 5.1 5.4 5.3 5.4 5.6 5.1 5.1 5.3
6.5 6.5 6.5 6.5 6.5 6.5 6.5 6.5 6.5 6.5 6.5 6.5 6.9 7.2 7.5 6.3 5.0 4.7 4.3 4.2 4.5 4.5 4.8 4.2 4.2 4.6 4.9 4.9 5.2 5.2 5.7 5.9 5.7 6.4 6.3 6.2 6.2 5.8 5.8 5.3 4.4 4.7 5.2 5.3 5.5 5.5 5.5 5.7 6.3
6.5 6.5 6.5 6.5 6.5 6.5 6.5 6.5 6.4 6.5 6.7 7.0 7.0 7.3 5.7 4.5 4.1 4.2 3.4 3.4 3.4 3.5 4.0 4.0 3.8 4.5 4.7 4.4 4.1 4.7 5.0 5.0 5.9 4.3 3.7 3.7 3.6 2.7 3.5 3.3 3.2 3.1 4.3 5.8 5.8 5.8 5.3 5.5 6.2
Wind_Speed
11 7 3 1 3 5 5 5 1 9 5 2 6 3 8 7 3 6 3 4 5 3 3 2 2 6 11 15 16 20 22 25 24 22 21 21 19 18 18 16 14 13 12 13 14 15 14 14 12
8 4 2 1 4 8 5 6 6 4 8 14 11 6 5 5 3 5 2 5 4 5 4 3 1 7 12 16 17 19 23 23 23 21 18 18 17 17 16 14 13 13 14 15 16 15 15 15 13
6 3 2 3 3 5 5 7 9 9 3 4 5 6 3 4 3 2 5 5 5 6 9 8 5 12 15 16 18 21 21 22 22 19 15 16 14 14 13 13 13 14 15 15 16 16 16 15 13
2 2 2 8 11 5 5 7 11 11 12 7 8 7 6 6 2 4 6 6 6 8 11 9 5 17 17 17 19 21 22 22 20 16 14 14 13 11 12 14 15 16 16 15 16 15 13 12 10
1 1 4 7 11 7 8 11 4 7 6 8 4 6 5 5 7 9 7 7 8 8 12 11 10 19 17 18 19 23 23 21 17 15 14 14 12 11 14 17 16 16 17 15 13 12 10 8 6
1 1 4 6 8 8 6 6 11 12 12 13 9 8 3 2 6 7 7 8 8 9 12 12 11 14 15 18 20 23 24 21 16 12 13 12 13 16 11 16 16 16 15 13 11 9 8 6 4
3 4 4 8 10 5 5 5 8 11 11 7 6 5 3 3 5 6 7 8 9 11 11 13 11 7 13 16 18 25 24 20 15 10 10 10 19 17 13 15 14 14 12 11 9 7 6 5 5
2 3 4 4 8 4 7 4 11 7 10 7 2 4 5 8 8 7 6 7 8 9 9 11 10 9 12 13 20 21 21 15 12 6 6 11 15 15 14 13 13 12 11 9 7 5 3 3 4
1 3 3 5 9 8 9 9 4 5 9 6 4 5 8 12 10 7 5 5 6 7 8 10 11 14 23 26 25 26 24 13 14 5 10 12 11 13 12 11 11 9 8 7 5 2 2 2 2
1 3 5 4 7 13 11 11 8 9 7 5 11 11 11 10 9 6 4 4 5 6 8 9 10 13 16 10 10 16 17 11 13 5 11 11 10 10 9 11 8 7 6 4 3 2 3 3 3
2 4 3 5 8 15 16 9 5 13 4 9 14 14 11 9 8 6 5 3 3 5 5 7 7 9 14 10 10 10 10 9 9 9 10 11 11 6 6 5 5 3 4 1 1 2 2 3 5
4 4 6 9 12 14 14 10 8 4 2 11 14 16 12 10 8 7 6 5 5 5 5 5 7 6 10 13 13 14 11 10 9 9 8 9 4 4 3 3 3 1 1 2 2 3 5 5 5
5 5 9 12 12 13 12 8 5 2 8 13 13 14 12 10 9 7 5 5 5 6 6 5 6 6 8 9 9 10 11 11 14 6 8 9 5 2 3 2 2 2 1 2 3 5 6 7 8
4 13 15 12 14 11 10 6 3 4 10 12 14 13 11 11 10 8 8 7 6 6 7 6 5 7 7 6 8 8 12 19 22 9 9 9 3 2 2 2 3 4 3 3 4 5 7 7 9
12 15 12 9 8 5 11 3 2 9 11 12 11 10 10 10 10 10 9 9 8 7 7 8 6 7 7 6 7 8 7 10 12 16 15 11 7 5 4 4 4 5 5 5 5 7 7 7 8
5 5 4 6 6 6 3 3 4 11 11 11 10 9 10 12 13 11 10 10 9 9 9 8 7 7 7 6 6 7 9 7 8 6 8 8 6 6 7 5 5 5 5 4 4 5 5 6 7
4 5 5 7 2 6 0 4 7 10 11 9 11 11 10 10 12 12 13 12 11 11 10 10 9 8 8 7 6 7 7 6 7 8 9 9 8 8 7 6 7 7 6 5 5 5 4 7 8
8 5 4 6 8 8 3 4 10 11 12 12 12 11 10 11 14 11 13 12 11 11 11 10 9 8 7 4 4 4 5 7 9 11 11 11 10 10 8 7 8 7 5 5 5 6 6 7 6
10 9 9 5 7 9 5 2 10 10 11 11 11 11 12 12 8 9 11 11 10 10 11 11 11 9 7 5 4 4 4 6 5 9 11 11 10 9 8 7 6 7 4 8 7 4 4 3 2
10 11 5 5 6 8 5 5 3 8 12 13 12 11 11 10 8 8 12 12 10 11 12 11 11 11 8 7 5 4 3 4 4 7 10 10 10 10 10 8 6 5 3 9 6 3 2 3 2
7 13 11 7 8 3 5 2 5 5 9 8 11 12 11 11 9 9 12 12 11 12 12 11 11 11 10 9 6 4 2 3 3 4 5 8 11 11 12 11 8 5 6 5 5 4 5 4 2
7 9 11 15 10 4 3 5 4 8 10 9 11 11 11 10 10 9 12 13 13 13 11 10 10 11 10 10 8 9 7 6 4 4 5 6 10 12 13 12 11 7 5 7 6 5 5 5 5
1 11 13 14 5 4 4 2 6 3 9 13 12 12 11 11 11 12 12 12 14 13 12 12 10 10 9 9 10 8 9 6 4 4 5 6 6 10 12 12 10 8 7 7 7 7 6 5 6
17 18 9 5 3 3 5 3 5 9 14 9 10 10 13 12 13 12 10 10 11 11 12 11 12 11 11 11 11 12 11 9 6 6 6 6 5 5 7 8 9 9 8 8 7 8 9 7 6
2 12 4 3 4 0 2 5 5 7 11 11 11 11 10 10 11 12 12 13 12 13 14 13 13 13 12 12 12 12 12 11 10 9 6 6 4 4 4 5 5 6 7 8 7 8 9 8 7
12 5 2 4 4 3 2 5 2 3 9 12 7 2 4 8 9 12 13 13 13 13 14 14 14 14 12 11 12 11 11 8 7 7 6 5 6 6 4 4 6 7 9 8 7 7 7 7 7
6 5 2 6 2 3 3 4 2 4 9 8 8 6 6 6 8 10 9 11 11 13 14 15 14 12 12 12 10 11 9 10 8 8 6 6 7 6 7 7 8 8 7 7 6 6 7 7 6
3 12 4 1 6 3 3 2 6 12 13 9 8 8 3 3 5 7 7 8 9 9 9 10 11 11 10 10 8 8 9 9 8 8 9 10 10 9 9 9 9 8 7 5 4 4 3 5 4
5 5 5 1 3 3 5 3 6 13 11 10 8 5 3 4 4 4 4 4 5 5 5 6 7 8 7 7 7 8 7 7 8 8 8 9 10 9 10 10 8 6 5 4 5 4 4 5 5
4 7 10 4 4 2 1 6 4 9 9 9 9 7 7 7 8 8 8 8 8 7 6 5 5 5 5 4 5 4 3 3 3 3 4 5 5 6 6 4 4 3 6 7 7 7 5 7 7
Wind_Direction
144 141 107 244 76 67 55 38 31 117 117 14 96 80 88 46 20 88 71 49 79 69 63 31 5 136 143 142 140 130 132 130 128 123 116 116 117 116 115 114 113 119 127 123 118 119 120 118 117
134 138 278 334 82 87 65 13 60 72 115 102 84 97 72 74 43 98 84 63 56 21 352 300 239 172 148 146 143 137 136 130 130 125 118 116 117 117 116 117 119 118 120 124 121 120 120 120 118
159 268 335 67 65 70 97 98 90 104 139 95 106 55 52 57 64 56 86 81 38 24 350 334 222 172 152 151 146 144 143 137 134 126 118 118 120 119 123 133 121 125 122 123 122 118 120 117 117
218 182 87 70 77 54 105 111 110 107 93 77 113 71 83 19 18 94 98 64 50 18 5 20 140 159 152 154 149 144 143 138 134 131 124 125 124 127 134 143 128 124 125 122 122 121 122 119 116
340 100 63 78 65 92 107 119 44 100 90 77 97 93 69 44 94 110 90 62 53 35 28 40 105 144 148 155 155 143 138 137 141 132 133 128 129 123 128 128 132 125 126 126 121 120 118 106 99
94 40 81 83 95 108 104 93 88 97 108 101 80 84 58 85 122 109 86 71 56 45 44 45 90 135 150 155 154 145 140 128 115 123 131 133 118 101 124 130 126 128 127 122 120 122 115 96 63
92 75 85 111 115 110 119 108 93 114 108 81 112 88 110 153 130 117 92 75 58 49 49 47 68 113 152 147 153 144 119 107 82 97 125 135 134 136 140 125 122 126 125 127 123 114 102 82 58
82 89 116 119 151 109 139 111 127 119 98 113 43 127 147 162 154 136 110 85 63 51 54 64 60 75 102 117 99 109 112 117 128 69 100 124 123 126 128 125 128 123 122 124 117 108 91 62 47
245 88 149 147 160 134 138 130 129 116 122 66 54 91 112 139 151 148 131 98 83 65 58 67 69 76 108 117 131 140 136 146 124 59 75 105 106 119 123 122 125 115 117 118 112 97 50 6 9
14 131 180 188 150 146 148 155 136 147 131 82 92 99 127 144 159 164 153 121 94 75 61 68 63 85 103 99 120 125 146 152 113 74 70 80 80 106 106 118 112 112 105 99 78 22 341 291 327
110 130 181 177 149 142 146 152 127 142 154 168 148 149 155 159 168 178 169 152 108 99 80 82 69 83 112 134 104 111 129 103 101 104 86 80 47 71 79 94 89 81 70 84 19 314 310 345 337
107 83 134 122 143 140 150 137 130 74 90 163 155 153 156 167 179 190 186 171 167 154 127 115 91 90 100 116 122 127 119 112 83 45 54 53 77 60 50 35 61 43 32 342 342 321 329 324 311
85 110 105 131 131 132 137 140 137 89 122 139 146 155 165 173 186 197 200 181 171 170 150 150 124 111 110 116 123 121 120 111 103 64 76 321 23 16 32 6 337 314 309 315 325 314 314 312 313
66 103 108 124 126 132 142 134 142 115 141 148 163 170 175 186 190 199 204 201 191 184 162 164 164 131 129 124 135 123 129 124 114 138 255 245 260 295 328 307 294 293 284 289 302 292 296 300 301
130 95 94 111 124 113 124 120 315 150 162 163 182 180 187 200 201 215 213 210 198 195 175 177 178 165 154 147 149 145 138 160 158 187 217 211 241 242 271 286 293 310 283 276 270 284 279 278 286
94 96 125 161 133 151 271 120 127 160 171 180 188 194 203 208 217 218 222 224 204 199 194 187 183 189 178 169 169 164 169 181 217 236 229 251 265 278 275 281 298 326 305 279 272 290 297 294 293
40 142 145 168 210 155 237 135 177 177 188 198 204 208 214 223 228 225 221 218 214 200 199 195 190 188 193 182 184 200 212 233 242 241 253 260 257 258 262 267 283 294 291 278 286 284 285 298 298
191 161 169 163 185 185 145 167 177 188 206 218 220 224 226 228 234 220 218 212 209 200 197 203 195 188 199 180 195 225 221 218 232 242 245 249 252 253 252 261 276 292 296 294 288 287 295 282 290
213 173 160 177 165 184 197 235 190 191 213 225 235 231 240 238 245 203 207 203 199 196 197 198 198 188 182 193 216 250 247 254 230 232 241 252 254 245 243 260 267 269 292 301 298 313 303 294 313
184 165 139 110 156 199 217 259 192 197 220 226 239 246 251 255 234 184 193 193 193 194 197 200 206 195 191 197 216 214 194 224 241 251 242 240 242 245 241 241 250 226 250 266 261 211 274 269 233
180 195 167 153 145 68 153 207 226 215 232 235 240 253 260 252 238 185 186 196 191 195 198 200 204 198 195 200 196 200 215 245 235 229 244 241 246 247 242 245 247 242 238 264 268 240 233 282 244
182 195 175 148 161 163 310 192 220 218 237 225 243 238 249 243 226 198 186 195 198 208 203 206 197 197 194 191 207 213 231 243 249 256 261 263 254 251 246 245 243 244 242 250 250 245 241 232 283
164 158 145 147 119 154 181 252 160 175 240 253 236 238 243 233 224 213 207 203 202 198 201 206 199 195 196 196 208 218 232 237 259 259 267 250 249 243 241 236 234 233 241 244 245 247 241 242 267
132 115 102 100 142 205 167 250 175 187 203 226 252 238 235 231 220 223 207 191 201 200 203 207 204 204 200 200 205 216 230 233 237 246 261 261 262 253 239 239 237 242 244 251 254 250 242 240 242
176 156 138 174 205 198 131 211 267 202 197 204 218 237 239 233 229 225 212 203 199 196 203 206 210 217 204 205 211 217 229 235 238 248 260 277 290 288 270 255 259 257 261 262 256 252 256 246 244
178 208 206 188 191 152 115 227 113 197 194 210 244 217 204 218 222 223 219 212 206 201 200 205 210 220 219 217 218 220 228 237 243 254 267 275 290 303 301 264 253 251 253 254 250 251 249 254 253
157 201 80 109 78 212 165 240 288 155 179 191 209 229 230 204 211 219 212 211 206 206 204 203 209 217 220 223 228 228 229 235 249 255 261 268 269 275 265 255 254 260 263 256 258 262 263 258 256
218 142 171 103 168 173 151 218 140 155 162 176 198 216 214 171 189 197 199 203 204 210 210 210 216 220 223 228 227 232 239 244 259 270 269 272 277 274 274 266 262 254 249 261 274 289 284 262 263
149 171 69 109 287 154 158 159 183 162 166 177 188 189 108 100 129 138 147 156 162 168 184 189 197 209 213 216 219 225 232 238 246 257 268 272 284 290 283 278 286 290 282 310 304 304 306 285 284
190 171 191 228 187 90 129 142 173 178 175 177 150 125 98 97 100 103 101 104 109 115 130 147 164 185 197 189 195 213 240 257 278 357 2 352 343 349 340 309 278 289 300 303 290 289 284 274 285